contact:dominique.lefevre@mio.osupytheas.fr, maurice.libes@osupytheas.fr, didier.mallarino@osupytheas.fr
Project:EMSO http://www.emso-fr.org/EMSO-France
Depth: 2436.0 m
Title:EMSO Ligure Ouest : Data MII capteur MICROCAT
DateTime_Computer,Latitude,Longitude,Temperature,Conductivity,Pressure,DateTime_Instrument
DateTime_Computer,Latitude,Longitude,degC,S m-1,dbar,DateTime_Instrument
2023-01-13T00:02:12Z,42.805,6.029,13.3014,4.60062,2470.637,2023-1-13T02:08:27Z
2023-01-13T00:05:15Z,42.805,6.029,13.3014,4.60064,2470.6,2023-1-13T02:11:30Z
2023-01-13T00:08:18Z,42.805,6.029,13.3011,4.60063,2470.6,2023-1-13T02:14:34Z
2023-01-13T00:11:21Z,42.805,6.029,13.3014,4.60064,2470.624,2023-1-13T02:17:37Z
2023-01-13T00:14:24Z,42.805,6.029,13.3014,4.60064,2470.6,2023-1-13T02:20:40Z
2023-01-13T00:17:28Z,42.805,6.029,13.3012,4.60062,2470.6,2023-1-13T02:23:43Z
2023-01-13T00:20:31Z,42.805,6.029,13.3011,4.60064,2470.624,2023-1-13T02:26:46Z
2023-01-13T00:23:34Z,42.805,6.029,13.3009,4.60063,2470.6,2023-1-13T02:29:49Z
2023-01-13T00:26:37Z,42.805,6.029,13.3012,4.60065,2470.6,2023-1-13T02:32:52Z
2023-01-13T00:29:40Z,42.805,6.029,13.3011,4.60062,2470.6,2023-1-13T02:35:55Z
2023-01-13T00:32:43Z,42.805,6.029,13.3013,4.60063,2470.614,2023-1-13T02:38:58Z
2023-01-13T00:35:46Z,42.805,6.029,13.3011,4.60066,2470.6,2023-1-13T02:42:01Z
2023-01-13T00:38:49Z,42.805,6.029,13.3010,4.60062,2470.6,2023-1-13T02:45:04Z
2023-01-13T00:41:52Z,42.805,6.029,13.3010,4.60064,2470.6,2023-1-13T02:48:08Z
2023-01-13T00:44:55Z,42.805,6.029,13.3012,4.60063,2470.577,2023-1-13T02:51:11Z
2023-01-13T00:47:58Z,42.805,6.029,13.3013,4.60062,2470.577,2023-1-13T02:54:14Z
2023-01-13T00:51:01Z,42.805,6.029,13.3010,4.60067,2470.577,2023-1-13T02:57:17Z
2023-01-13T00:54:05Z,42.805,6.029,13.3014,4.60063,2470.577,2023-1-13T03:00:20Z
2023-01-13T00:57:08Z,42.805,6.029,13.3014,4.60063,2470.624,2023-1-13T03:03:23Z
2023-01-13T01:00:11Z,42.805,6.029,13.3010,4.60064,2470.577,2023-1-13T03:06:26Z
2023-01-13T01:03:14Z,42.805,6.029,13.3015,4.60062,2470.6,2023-1-13T03:09:29Z
2023-01-13T01:06:17Z,42.805,6.029,13.3011,4.60065,2470.577,2023-1-13T03:12:32Z
2023-01-13T01:09:20Z,42.805,6.029,13.3011,4.60062,2470.6,2023-1-13T03:15:35Z
2023-01-13T01:12:23Z,42.805,6.029,13.3012,4.60063,2470.577,2023-1-13T03:18:38Z
2023-01-13T01:15:26Z,42.805,6.029,13.3009,4.60062,2470.614,2023-1-13T03:21:41Z
2023-01-13T01:18:29Z,42.805,6.029,13.3011,4.60063,2470.614,2023-1-13T03:24:45Z
2023-01-13T01:21:32Z,42.805,6.029,13.3011,4.60064,2470.577,2023-1-13T03:27:48Z
2023-01-13T01:24:35Z,42.805,6.029,13.3013,4.60063,2470.577,2023-1-13T03:30:51Z
2023-01-13T01:27:39Z,42.805,6.029,13.3014,4.60062,2470.577,2023-1-13T03:33:54Z
2023-01-13T01:30:42Z,42.805,6.029,13.3013,4.60062,2470.591,2023-1-13T03:36:57Z
2023-01-13T01:33:45Z,42.805,6.029,13.3013,4.60063,2470.591,2023-1-13T03:40:00Z
2023-01-13T01:36:48Z,42.805,6.029,13.3010,4.60064,2470.591,2023-1-13T03:43:03Z
2023-01-13T01:39:51Z,42.805,6.029,13.3006,4.60062,2470.577,2023-1-13T03:46:06Z
2023-01-13T01:42:54Z,42.805,6.029,13.3014,4.60062,2470.577,2023-1-13T03:49:09Z
2023-01-13T01:45:57Z,42.805,6.029,13.3011,4.60064,2470.577,2023-1-13T03:52:12Z
2023-01-13T01:49:00Z,42.805,6.029,13.3011,4.60062,2470.553,2023-1-13T03:55:15Z
2023-01-13T01:52:03Z,42.805,6.029,13.3010,4.60063,2470.553,2023-1-13T03:58:19Z
2023-01-13T01:55:06Z,42.805,6.029,13.3014,4.60063,2470.614,2023-1-13T04:01:22Z
2023-01-13T01:58:09Z,42.805,6.029,13.3011,4.60062,2470.577,2023-1-13T04:04:25Z
2023-01-13T02:01:12Z,42.805,6.029,13.3014,4.60062,2470.567,2023-1-13T04:07:28Z
2023-01-13T02:04:16Z,42.805,6.029,13.3011,4.60062,2470.563,2023-1-13T04:10:31Z
2023-01-13T02:07:19Z,42.805,6.029,13.3012,4.60062,2470.577,2023-1-13T04:13:34Z
2023-01-13T02:10:22Z,42.805,6.029,13.3015,4.60062,2470.577,2023-1-13T04:16:37Z
2023-01-13T02:13:25Z,42.805,6.029,13.3014,4.60064,2470.591,2023-1-13T04:19:40Z
2023-01-13T02:16:28Z,42.805,6.029,13.3009,4.60062,2470.591,2023-1-13T04:22:43Z
2023-01-13T02:19:31Z,42.805,6.029,13.3011,4.60063,2470.544,2023-1-13T04:25:46Z
2023-01-13T02:22:34Z,42.805,6.029,13.3012,4.60063,2470.567,2023-1-13T04:28:49Z
2023-01-13T02:25:37Z,42.805,6.029,13.3012,4.60066,2470.6,2023-1-13T04:31:53Z
2023-01-13T02:28:40Z,42.805,6.029,13.3012,4.60062,2470.567,2023-1-13T04:34:56Z
2023-01-13T02:31:43Z,42.805,6.029,13.3014,4.60063,2470.567,2023-1-13T04:37:59Z
2023-01-13T02:34:46Z,42.805,6.029,13.3013,4.60062,2470.553,2023-1-13T04:41:02Z
2023-01-13T02:37:49Z,42.805,6.029,13.3015,4.60062,2470.591,2023-1-13T04:44:05Z
2023-01-13T02:40:53Z,42.805,6.029,13.3013,4.60062,2470.53,2023-1-13T04:47:08Z
2023-01-13T02:43:56Z,42.805,6.029,13.3014,4.60062,2470.614,2023-1-13T04:50:11Z
2023-01-13T02:46:59Z,42.805,6.029,13.3014,4.60062,2470.577,2023-1-13T04:53:14Z
2023-01-13T02:50:02Z,42.805,6.029,13.3013,4.60062,2470.539,2023-1-13T04:56:17Z
2023-01-13T02:53:05Z,42.805,6.029,13.3014,4.60063,2470.553,2023-1-13T04:59:20Z
2023-01-13T02:56:08Z,42.805,6.029,13.3014,4.60064,2470.553,2023-1-13T05:02:23Z
2023-01-13T02:59:11Z,42.805,6.029,13.3010,4.60062,2470.53,2023-1-13T05:05:26Z
2023-01-13T03:02:14Z,42.805,6.029,13.3015,4.60062,2470.577,2023-1-13T05:08:30Z
2023-01-13T03:05:17Z,42.805,6.029,13.3014,4.60064,2470.544,2023-1-13T05:11:33Z
2023-01-13T03:08:20Z,42.805,6.029,13.3014,4.60062,2470.567,2023-1-13T05:14:36Z
2023-01-13T03:11:23Z,42.805,6.029,13.3012,4.60062,2470.516,2023-1-13T05:17:39Z
2023-01-13T03:14:27Z,42.805,6.029,13.3015,4.60063,2470.577,2023-1-13T05:20:42Z
2023-01-13T03:17:30Z,42.805,6.029,13.3013,4.60064,2470.553,2023-1-13T05:23:45Z
2023-01-13T03:20:33Z,42.805,6.029,13.3013,4.60062,2470.553,2023-1-13T05:26:48Z
2023-01-13T03:23:36Z,42.805,6.029,13.3014,4.60062,2470.567,2023-1-13T05:29:51Z
2023-01-13T03:26:39Z,42.805,6.029,13.3013,4.60062,2470.567,2023-1-13T05:32:54Z
2023-01-13T03:29:42Z,42.805,6.029,13.3013,4.60063,2470.567,2023-1-13T05:35:57Z
2023-01-13T03:32:45Z,42.805,6.029,13.3011,4.60064,2470.567,2023-1-13T05:39:00Z
2023-01-13T03:35:48Z,42.805,6.029,13.3014,4.60062,2470.553,2023-1-13T05:42:04Z
2023-01-13T03:38:51Z,42.805,6.029,13.3014,4.60062,2470.544,2023-1-13T05:45:07Z
2023-01-13T03:41:54Z,42.805,6.029,13.3014,4.60061,2470.567,2023-1-13T05:48:10Z
2023-01-13T03:44:57Z,42.805,6.029,13.3014,4.60062,2470.553,2023-1-13T05:51:13Z
2023-01-13T03:48:00Z,42.805,6.029,13.3014,4.60063,2470.553,2023-1-13T05:54:16Z
2023-01-13T03:51:04Z,42.805,6.029,13.3014,4.60062,2470.53,2023-1-13T05:57:19Z
2023-01-13T03:54:07Z,42.805,6.029,13.3011,4.60062,2470.544,2023-1-13T06:00:22Z
2023-01-13T03:57:10Z,42.805,6.029,13.3016,4.60063,2470.53,2023-1-13T06:03:25Z
2023-01-13T04:00:13Z,42.805,6.029,13.3011,4.60064,2470.567,2023-1-13T06:06:28Z
2023-01-13T04:03:16Z,42.805,6.029,13.3014,4.60063,2470.544,2023-1-13T06:09:31Z
2023-01-13T04:06:19Z,42.805,6.029,13.3011,4.60062,2470.539,2023-1-13T06:12:34Z
2023-01-13T04:09:22Z,42.805,6.029,13.3011,4.60064,2470.553,2023-1-13T06:15:38Z
2023-01-13T04:12:25Z,42.805,6.029,13.3011,4.60063,2470.567,2023-1-13T06:18:41Z
2023-01-13T04:15:28Z,42.805,6.029,13.3015,4.60065,2470.553,2023-1-13T06:21:44Z
2023-01-13T04:18:31Z,42.805,6.029,13.3020,4.60062,2470.553,2023-1-13T06:24:47Z
2023-01-13T04:21:34Z,42.805,6.029,13.3013,4.60062,2470.53,2023-1-13T06:27:50Z
2023-01-13T04:24:38Z,42.805,6.029,13.3014,4.60062,2470.553,2023-1-13T06:30:53Z
2023-01-13T04:27:41Z,42.805,6.029,13.3015,4.60062,2470.53,2023-1-13T06:33:56Z
2023-01-13T04:30:44Z,42.805,6.029,13.3014,4.60062,2470.553,2023-1-13T06:36:59Z
2023-01-13T04:33:47Z,42.805,6.029,13.3014,4.60062,2470.577,2023-1-13T06:40:02Z
2023-01-13T04:36:50Z,42.805,6.029,13.3011,4.60062,2470.567,2023-1-13T06:43:05Z
2023-01-13T04:39:53Z,42.805,6.029,13.3014,4.60061,2470.53,2023-1-13T06:46:08Z
2023-01-13T04:42:56Z,42.805,6.029,13.3012,4.60067,2470.53,2023-1-13T06:49:12Z
2023-01-13T04:45:59Z,42.805,6.029,13.3009,4.60062,2470.553,2023-1-13T06:52:15Z
2023-01-13T04:49:02Z,42.805,6.029,13.3014,4.60064,2470.53,2023-1-13T06:55:18Z
2023-01-13T04:52:05Z,42.805,6.029,13.3014,4.60063,2470.553,2023-1-13T06:58:21Z
2023-01-13T04:55:08Z,42.805,6.029,13.3011,4.60062,2470.553,2023-1-13T07:01:24Z
2023-01-13T04:58:11Z,42.805,6.029,13.3011,4.60062,2470.53,2023-1-13T07:04:27Z
2023-01-13T05:01:15Z,42.805,6.029,13.3015,4.60064,2470.544,2023-1-13T07:07:30Z
2023-01-13T05:04:18Z,42.805,6.029,13.3011,4.60064,2470.553,2023-1-13T07:10:33Z
2023-01-13T05:07:21Z,42.805,6.029,13.3009,4.60059,2470.544,2023-1-13T07:13:36Z
2023-01-13T05:10:24Z,42.805,6.029,13.3008,4.60062,2470.53,2023-1-13T07:16:39Z
2023-01-13T05:13:27Z,42.805,6.029,13.3014,4.60063,2470.553,2023-1-13T07:19:42Z
2023-01-13T05:16:30Z,42.805,6.029,13.3011,4.60063,2470.553,2023-1-13T07:22:45Z
2023-01-13T05:19:33Z,42.805,6.029,13.3015,4.60062,2470.567,2023-1-13T07:25:49Z
2023-01-13T05:22:36Z,42.805,6.029,13.3010,4.60062,2470.553,2023-1-13T07:28:52Z
2023-01-13T05:25:39Z,42.805,6.029,13.3011,4.60062,2470.553,2023-1-13T07:31:55Z
2023-01-13T05:28:42Z,42.805,6.029,13.3014,4.60062,2470.577,2023-1-13T07:34:58Z
2023-01-13T05:31:45Z,42.805,6.029,13.3011,4.60064,2470.53,2023-1-13T07:38:01Z
2023-01-13T05:34:49Z,42.805,6.029,13.3012,4.60064,2470.53,2023-1-13T07:41:04Z
2023-01-13T05:37:52Z,42.805,6.029,13.3010,4.60064,2470.553,2023-1-13T07:44:07Z
2023-01-13T05:40:55Z,42.805,6.029,13.3009,4.60064,2470.553,2023-1-13T07:47:10Z
2023-01-13T05:43:58Z,42.805,6.029,13.3014,4.60062,2470.53,2023-1-13T07:50:13Z
2023-01-13T05:47:01Z,42.805,6.029,13.3011,4.60063,2470.577,2023-1-13T07:53:16Z
2023-01-13T05:50:04Z,42.805,6.029,13.3015,4.60061,2470.567,2023-1-13T07:56:19Z
2023-01-13T05:53:07Z,42.805,6.029,13.3018,4.60062,2470.567,2023-1-13T07:59:23Z
2023-01-13T05:56:10Z,42.805,6.029,13.3010,4.60065,2470.567,2023-1-13T08:02:26Z
2023-01-13T05:59:13Z,42.805,6.029,13.3011,4.60061,2470.553,2023-1-13T08:05:29Z
2023-01-13T06:02:16Z,42.805,6.029,13.3013,4.60062,2470.577,2023-1-13T08:08:32Z
2023-01-13T06:05:19Z,42.805,6.029,13.3011,4.60068,2470.553,2023-1-13T08:11:35Z
2023-01-13T06:08:22Z,42.805,6.029,13.3012,4.60062,2470.553,2023-1-13T08:14:38Z
2023-01-13T06:11:26Z,42.805,6.029,13.3011,4.60063,2470.567,2023-1-13T08:17:41Z
2023-01-13T06:14:29Z,42.805,6.029,13.3010,4.60064,2470.567,2023-1-13T08:20:44Z
2023-01-13T06:17:32Z,42.805,6.029,13.3012,4.60062,2470.591,2023-1-13T08:23:47Z
2023-01-13T06:20:35Z,42.805,6.029,13.3013,4.60062,2470.577,2023-1-13T08:26:50Z
2023-01-13T06:23:38Z,42.805,6.029,13.3015,4.60065,2470.567,2023-1-13T08:29:53Z
2023-01-13T06:26:41Z,42.805,6.029,13.3014,4.60062,2470.567,2023-1-13T08:32:57Z
2023-01-13T06:29:44Z,42.805,6.029,13.3011,4.60064,2470.577,2023-1-13T08:36:00Z
2023-01-13T06:32:47Z,42.805,6.029,13.3014,4.60062,2470.624,2023-1-13T08:39:03Z
2023-01-13T06:35:50Z,42.805,6.029,13.3011,4.60063,2470.591,2023-1-13T08:42:06Z
2023-01-13T06:38:53Z,42.805,6.029,13.3013,4.60062,2470.577,2023-1-13T08:45:09Z
2023-01-13T06:41:56Z,42.805,6.029,13.3015,4.60062,2470.553,2023-1-13T08:48:12Z
2023-01-13T06:45:00Z,42.805,6.029,13.3012,4.60066,2470.553,2023-1-13T08:51:15Z
2023-01-13T06:48:03Z,42.805,6.029,13.3012,4.60062,2470.6,2023-1-13T08:54:18Z
2023-01-13T06:51:06Z,42.805,6.029,13.3014,4.60062,2470.6,2023-1-13T08:57:21Z
2023-01-13T06:54:09Z,42.805,6.029,13.3014,4.60062,2470.6,2023-1-13T09:00:24Z
2023-01-13T06:57:12Z,42.805,6.029,13.3011,4.60062,2470.6,2023-1-13T09:03:27Z
2023-01-13T07:00:15Z,42.805,6.029,13.3011,4.60065,2470.6,2023-1-13T09:06:30Z
2023-01-13T07:03:18Z,42.805,6.029,13.3012,4.60062,2470.6,2023-1-13T09:09:34Z
2023-01-13T07:06:21Z,42.805,6.029,13.3010,4.60063,2470.591,2023-1-13T09:12:37Z
2023-01-13T07:09:24Z,42.805,6.029,13.3014,4.60062,2470.624,2023-1-13T09:15:40Z
2023-01-13T07:12:27Z,42.805,6.029,13.3014,4.60064,2470.624,2023-1-13T09:18:43Z
2023-01-13T07:15:30Z,42.805,6.029,13.3009,4.60064,2470.553,2023-1-13T09:21:46Z
2023-01-13T07:18:33Z,42.805,6.029,13.3014,4.60062,2470.6,2023-1-13T09:24:49Z
2023-01-13T07:21:37Z,42.805,6.029,13.3011,4.60062,2470.624,2023-1-13T09:27:52Z
2023-01-13T07:24:40Z,42.805,6.029,13.3011,4.60064,2470.577,2023-1-13T09:30:55Z
2023-01-13T07:27:43Z,42.805,6.029,13.3010,4.60063,2470.6,2023-1-13T09:33:58Z
2023-01-13T07:30:46Z,42.805,6.029,13.3009,4.60062,2470.624,2023-1-13T09:37:01Z
2023-01-13T07:33:49Z,42.805,6.029,13.3011,4.60062,2470.6,2023-1-13T09:40:04Z
2023-01-13T07:36:52Z,42.805,6.029,13.3013,4.60064,2470.637,2023-1-13T09:43:08Z
2023-01-13T07:39:55Z,42.805,6.029,13.3014,4.60062,2470.61,2023-1-13T09:46:11Z
2023-01-13T07:42:58Z,42.805,6.029,13.3011,4.60063,2470.624,2023-1-13T09:49:14Z
2023-01-13T07:46:01Z,42.805,6.029,13.3013,4.60063,2470.646,2023-1-13T09:52:17Z
2023-01-13T07:49:04Z,42.805,6.029,13.3014,4.60062,2470.646,2023-1-13T09:55:20Z
2023-01-13T07:52:07Z,42.805,6.029,13.3012,4.60063,2470.646,2023-1-13T09:58:23Z
2023-01-13T07:55:11Z,42.805,6.029,13.3015,4.60063,2470.646,2023-1-13T10:01:26Z
2023-01-13T07:58:14Z,42.805,6.029,13.3013,4.60064,2470.646,2023-1-13T10:04:29Z
2023-01-13T08:01:17Z,42.805,6.029,13.3009,4.60063,2470.637,2023-1-13T10:07:32Z
2023-01-13T08:04:20Z,42.805,6.029,13.3011,4.60067,2470.646,2023-1-13T10:10:35Z
2023-01-13T08:07:23Z,42.805,6.029,13.3010,4.60063,2470.624,2023-1-13T10:13:38Z
2023-01-13T08:10:26Z,42.805,6.029,13.3015,4.60062,2470.661,2023-1-13T10:16:42Z
2023-01-13T08:13:29Z,42.805,6.029,13.3013,4.60064,2470.6,2023-1-13T10:19:45Z
2023-01-13T08:16:32Z,42.805,6.029,13.3012,4.60064,2470.67,2023-1-13T10:22:48Z
2023-01-13T08:19:35Z,42.805,6.029,13.3011,4.60063,2470.646,2023-1-13T10:25:51Z
2023-01-13T08:22:38Z,42.805,6.029,13.3011,4.60064,2470.646,2023-1-13T10:28:54Z
2023-01-13T08:25:41Z,42.805,6.029,13.3012,4.60063,2470.67,2023-1-13T10:31:57Z
2023-01-13T08:28:45Z,42.805,6.029,13.3015,4.60064,2470.693,2023-1-13T10:35:00Z
2023-01-13T08:31:48Z,42.805,6.029,13.3011,4.60064,2470.67,2023-1-13T10:38:03Z
2023-01-13T08:34:51Z,42.805,6.029,13.3015,4.60064,2470.684,2023-1-13T10:41:06Z
2023-01-13T08:37:54Z,42.805,6.029,13.3014,4.60063,2470.693,2023-1-13T10:44:09Z
2023-01-13T08:40:57Z,42.805,6.029,13.3010,4.60062,2470.693,2023-1-13T10:47:13Z
2023-01-13T08:44:00Z,42.805,6.029,13.3014,4.60062,2470.693,2023-1-13T10:50:16Z
2023-01-13T08:47:03Z,42.805,6.029,13.3012,4.60062,2470.693,2023-1-13T10:53:19Z
2023-01-13T08:50:06Z,42.805,6.029,13.3014,4.60063,2470.684,2023-1-13T10:56:22Z
2023-01-13T08:53:09Z,42.805,6.029,13.3014,4.60063,2470.67,2023-1-13T10:59:25Z
2023-01-13T08:56:12Z,42.805,6.029,13.3012,4.60062,2470.693,2023-1-13T11:02:28Z
2023-01-13T08:59:15Z,42.805,6.029,13.3009,4.60064,2470.684,2023-1-13T11:05:31Z
2023-01-13T09:02:19Z,42.805,6.029,13.3015,4.60065,2470.67,2023-1-13T11:08:34Z
2023-01-13T09:05:22Z,42.805,6.029,13.3010,4.60063,2470.707,2023-1-13T11:11:37Z
2023-01-13T09:08:25Z,42.805,6.029,13.3013,4.60062,2470.693,2023-1-13T11:14:40Z
2023-01-13T09:11:28Z,42.805,6.029,13.3011,4.60062,2470.717,2023-1-13T11:17:43Z
2023-01-13T09:14:31Z,42.805,6.029,13.3011,4.60063,2470.717,2023-1-13T11:20:47Z
2023-01-13T09:17:34Z,42.805,6.029,13.3014,4.60067,2470.74,2023-1-13T11:23:50Z
2023-01-13T09:20:37Z,42.805,6.029,13.3011,4.60062,2470.73,2023-1-13T11:26:53Z
2023-01-13T09:23:40Z,42.805,6.029,13.3013,4.60063,2470.717,2023-1-13T11:29:56Z
2023-01-13T09:26:43Z,42.805,6.029,13.3012,4.60062,2470.717,2023-1-13T11:32:59Z
2023-01-13T09:29:46Z,42.805,6.029,13.3014,4.60064,2470.693,2023-1-13T11:36:02Z
2023-01-13T09:32:49Z,42.805,6.029,13.3011,4.60066,2470.73,2023-1-13T11:39:05Z
2023-01-13T09:35:53Z,42.805,6.029,13.3016,4.60064,2470.73,2023-1-13T11:42:08Z
2023-01-13T09:38:56Z,42.805,6.029,13.3013,4.60063,2470.754,2023-1-13T11:45:11Z
2023-01-13T09:41:59Z,42.805,6.029,13.3015,4.60062,2470.73,2023-1-13T11:48:14Z
2023-01-13T09:45:02Z,42.805,6.029,13.3010,4.60062,2470.693,2023-1-13T11:51:17Z
2023-01-13T09:48:05Z,42.805,6.029,13.3012,4.60062,2470.754,2023-1-13T11:54:21Z
2023-01-13T09:51:08Z,42.805,6.029,13.3014,4.60063,2470.693,2023-1-13T11:57:24Z
2023-01-13T09:54:11Z,42.805,6.029,13.3014,4.60064,2470.717,2023-1-13T12:00:27Z
2023-01-13T09:57:14Z,42.805,6.029,13.3014,4.60064,2470.717,2023-1-13T12:03:30Z
2023-01-13T10:00:17Z,42.805,6.029,13.3008,4.60064,2470.777,2023-1-13T12:06:33Z
2023-01-13T10:03:20Z,42.805,6.029,13.3011,4.60063,2470.74,2023-1-13T12:09:36Z
2023-01-13T10:06:24Z,42.805,6.029,13.3012,4.60062,2470.717,2023-1-13T12:12:39Z
2023-01-13T10:09:27Z,42.805,6.029,13.3011,4.60062,2470.777,2023-1-13T12:15:42Z
2023-01-13T10:12:30Z,42.805,6.029,13.3014,4.60062,2470.777,2023-1-13T12:18:45Z
2023-01-13T10:15:33Z,42.805,6.029,13.3011,4.60064,2470.717,2023-1-13T12:21:48Z
2023-01-13T10:18:36Z,42.805,6.029,13.3012,4.60063,2470.73,2023-1-13T12:24:52Z
2023-01-13T10:21:39Z,42.805,6.029,13.3015,4.60064,2470.763,2023-1-13T12:27:55Z
2023-01-13T10:24:42Z,42.805,6.029,13.3011,4.60063,2470.74,2023-1-13T12:30:58Z
2023-01-13T10:27:45Z,42.805,6.029,13.3014,4.60064,2470.763,2023-1-13T12:34:01Z
2023-01-13T10:30:48Z,42.805,6.029,13.3014,4.60063,2470.763,2023-1-13T12:37:04Z
2023-01-13T10:33:51Z,42.805,6.029,13.3015,4.60063,2470.74,2023-1-13T12:40:07Z
2023-01-13T10:36:54Z,42.805,6.029,13.3011,4.60067,2470.763,2023-1-13T12:43:10Z
2023-01-13T10:39:57Z,42.805,6.029,13.3009,4.60063,2470.74,2023-1-13T12:46:13Z
2023-01-13T10:43:01Z,42.805,6.029,13.3013,4.60062,2470.74,2023-1-13T12:49:16Z
2023-01-13T10:46:04Z,42.805,6.029,13.3014,4.60064,2470.74,2023-1-13T12:52:19Z
2023-01-13T10:49:07Z,42.805,6.029,13.3014,4.60064,2470.717,2023-1-13T12:55:22Z
2023-01-13T10:52:10Z,42.805,6.029,13.3009,4.60061,2470.717,2023-1-13T12:58:26Z
2023-01-13T10:55:13Z,42.805,6.029,13.3012,4.60063,2470.74,2023-1-13T13:01:29Z
2023-01-13T10:58:16Z,42.805,6.029,13.3012,4.60062,2470.74,2023-1-13T13:04:32Z
2023-01-13T11:01:19Z,42.805,6.029,13.3012,4.60062,2470.763,2023-1-13T13:07:35Z
2023-01-13T11:04:22Z,42.805,6.029,13.3011,4.60063,2470.763,2023-1-13T13:10:38Z
2023-01-13T11:07:25Z,42.805,6.029,13.3014,4.60061,2470.763,2023-1-13T13:13:41Z
2023-01-13T11:10:28Z,42.805,6.029,13.3014,4.60062,2470.754,2023-1-13T13:16:44Z
2023-01-13T11:13:32Z,42.805,6.029,13.3011,4.60062,2470.717,2023-1-13T13:19:47Z
2023-01-13T11:16:35Z,42.805,6.029,13.3012,4.60064,2470.74,2023-1-13T13:22:50Z
2023-01-13T11:19:38Z,42.805,6.029,13.3009,4.60064,2470.754,2023-1-13T13:25:53Z
2023-01-13T11:22:41Z,42.805,6.029,13.3012,4.60062,2470.717,2023-1-13T13:28:56Z
2023-01-13T11:25:44Z,42.805,6.029,13.3009,4.60064,2470.717,2023-1-13T13:32:00Z
2023-01-13T11:28:47Z,42.805,6.029,13.3014,4.60062,2470.74,2023-1-13T13:35:03Z
2023-01-13T11:31:50Z,42.805,6.029,13.3010,4.60064,2470.754,2023-1-13T13:38:06Z
2023-01-13T11:34:53Z,42.805,6.029,13.3012,4.60062,2470.777,2023-1-13T13:41:09Z
2023-01-13T11:37:56Z,42.805,6.029,13.3012,4.60067,2470.777,2023-1-13T13:44:12Z
2023-01-13T11:40:59Z,42.805,6.029,13.3007,4.60062,2470.74,2023-1-13T13:47:15Z
2023-01-13T11:44:02Z,42.805,6.029,13.3012,4.60062,2470.74,2023-1-13T13:50:18Z
2023-01-13T11:47:05Z,42.805,6.029,13.3011,4.60064,2470.754,2023-1-13T13:53:21Z
2023-01-13T11:50:09Z,42.805,6.029,13.3007,4.60062,2470.74,2023-1-13T13:56:24Z
2023-01-13T11:53:12Z,42.805,6.029,13.3013,4.60061,2470.74,2023-1-13T13:59:27Z
2023-01-13T11:56:15Z,42.805,6.029,13.3012,4.60062,2470.787,2023-1-13T14:02:31Z
2023-01-13T11:59:18Z,42.805,6.029,13.3014,4.60062,2470.8,2023-1-13T14:05:34Z
2023-01-13T12:02:21Z,42.805,6.029,13.3010,4.60062,2470.763,2023-1-13T14:08:37Z
2023-01-13T12:05:24Z,42.805,6.029,13.3009,4.60062,2470.73,2023-1-13T14:11:40Z
2023-01-13T12:08:27Z,42.805,6.029,13.3014,4.60062,2470.763,2023-1-13T14:14:43Z
2023-01-13T12:11:30Z,42.805,6.029,13.3011,4.60064,2470.787,2023-1-13T14:17:46Z
2023-01-13T12:14:33Z,42.805,6.029,13.3008,4.60064,2470.74,2023-1-13T14:20:49Z
2023-01-13T12:17:36Z,42.805,6.029,13.3011,4.60063,2470.74,2023-1-13T14:23:52Z
2023-01-13T12:20:40Z,42.805,6.029,13.3013,4.60062,2470.74,2023-1-13T14:26:55Z
2023-01-13T12:23:43Z,42.805,6.029,13.3014,4.60062,2470.73,2023-1-13T14:29:58Z
2023-01-13T12:26:46Z,42.805,6.029,13.3012,4.60062,2470.73,2023-1-13T14:33:01Z
2023-01-13T12:29:49Z,42.805,6.029,13.3011,4.60062,2470.717,2023-1-13T14:36:05Z
2023-01-13T12:32:52Z,42.805,6.029,13.3009,4.60063,2470.74,2023-1-13T14:39:08Z
2023-01-13T12:35:55Z,42.805,6.029,13.3012,4.60064,2470.74,2023-1-13T14:42:11Z
2023-01-13T12:38:58Z,42.805,6.029,13.3009,4.60062,2470.693,2023-1-13T14:45:14Z
2023-01-13T12:42:01Z,42.805,6.029,13.3009,4.60062,2470.717,2023-1-13T14:48:17Z
2023-01-13T12:45:04Z,42.805,6.029,13.3012,4.60064,2470.754,2023-1-13T14:51:20Z
2023-01-13T12:48:07Z,42.805,6.029,13.3009,4.60063,2470.73,2023-1-13T14:54:23Z
2023-01-13T12:51:10Z,42.805,6.029,13.3015,4.60062,2470.717,2023-1-13T14:57:26Z
2023-01-13T12:54:14Z,42.805,6.029,13.3012,4.60061,2470.74,2023-1-13T15:00:29Z
2023-01-13T12:57:17Z,42.805,6.029,13.3011,4.60062,2470.693,2023-1-13T15:03:32Z
2023-01-13T13:00:20Z,42.805,6.029,13.3013,4.60062,2470.67,2023-1-13T15:06:35Z
2023-01-13T13:03:23Z,42.805,6.029,13.3011,4.60062,2470.684,2023-1-13T15:09:39Z
2023-01-13T13:06:26Z,42.805,6.029,13.3010,4.60062,2470.717,2023-1-13T15:12:42Z
2023-01-13T13:09:29Z,42.805,6.029,13.3011,4.60063,2470.717,2023-1-13T15:15:45Z
2023-01-13T13:12:32Z,42.805,6.029,13.3015,4.60066,2470.717,2023-1-13T15:18:48Z
2023-01-13T13:15:35Z,42.805,6.029,13.3011,4.60065,2470.717,2023-1-13T15:21:51Z
2023-01-13T13:18:38Z,42.805,6.029,13.3011,4.60062,2470.73,2023-1-13T15:24:54Z
2023-01-13T13:21:41Z,42.805,6.029,13.3012,4.60064,2470.74,2023-1-13T15:27:57Z
2023-01-13T13:24:44Z,42.805,6.029,13.3011,4.60062,2470.73,2023-1-13T15:31:00Z
2023-01-13T13:27:47Z,42.805,6.029,13.3011,4.60062,2470.693,2023-1-13T15:34:03Z
2023-01-13T13:30:51Z,42.805,6.029,13.3012,4.60062,2470.693,2023-1-13T15:37:06Z
2023-01-13T13:33:54Z,42.805,6.029,13.3010,4.60062,2470.707,2023-1-13T15:40:09Z
2023-01-13T13:36:57Z,42.805,6.029,13.3013,4.60064,2470.717,2023-1-13T15:43:13Z
2023-01-13T13:40:00Z,42.805,6.029,13.3009,4.60065,2470.73,2023-1-13T15:46:16Z
2023-01-13T13:43:03Z,42.805,6.029,13.3011,4.60064,2470.693,2023-1-13T15:49:19Z
2023-01-13T13:46:06Z,42.805,6.029,13.3011,4.60062,2470.73,2023-1-13T15:52:22Z
2023-01-13T13:49:09Z,42.805,6.029,13.3010,4.60064,2470.684,2023-1-13T15:55:25Z
2023-01-13T13:52:12Z,42.805,6.029,13.3014,4.60062,2470.717,2023-1-13T15:58:28Z
2023-01-13T13:55:15Z,42.805,6.029,13.3012,4.60063,2470.717,2023-1-13T16:01:31Z
2023-01-13T13:58:18Z,42.805,6.029,13.3006,4.60062,2470.646,2023-1-13T16:04:34Z
2023-01-13T14:01:22Z,42.805,6.029,13.3009,4.60062,2470.707,2023-1-13T16:07:37Z
2023-01-13T14:04:25Z,42.805,6.029,13.3011,4.60062,2470.717,2023-1-13T16:10:40Z
2023-01-13T14:07:28Z,42.805,6.029,13.3010,4.60063,2470.684,2023-1-13T16:13:43Z
2023-01-13T14:10:31Z,42.805,6.029,13.3012,4.60063,2470.693,2023-1-13T16:16:47Z
2023-01-13T14:13:34Z,42.805,6.029,13.3010,4.60063,2470.67,2023-1-13T16:19:50Z
2023-01-13T14:16:37Z,42.805,6.029,13.3006,4.60062,2470.707,2023-1-13T16:22:53Z
2023-01-13T14:19:40Z,42.805,6.029,13.3009,4.60069,2470.67,2023-1-13T16:25:56Z
2023-01-13T14:22:43Z,42.805,6.029,13.3012,4.60064,2470.646,2023-1-13T16:28:59Z
2023-01-13T14:25:46Z,42.805,6.029,13.3014,4.60063,2470.707,2023-1-13T16:32:02Z
2023-01-13T14:28:49Z,42.805,6.029,13.3013,4.60062,2470.656,2023-1-13T16:35:05Z
2023-01-13T14:31:52Z,42.805,6.029,13.3013,4.60062,2470.707,2023-1-13T16:38:08Z
2023-01-13T14:34:56Z,42.805,6.029,13.3011,4.60064,2470.661,2023-1-13T16:41:11Z
2023-01-13T14:37:59Z,42.805,6.029,13.3012,4.60062,2470.67,2023-1-13T16:44:14Z
2023-01-13T14:41:02Z,42.805,6.029,13.3011,4.60062,2470.684,2023-1-13T16:47:17Z
2023-01-13T14:44:05Z,42.805,6.029,13.3010,4.60062,2470.684,2023-1-13T16:50:21Z
2023-01-13T14:47:08Z,42.805,6.029,13.3014,4.60063,2470.67,2023-1-13T16:53:24Z
2023-01-13T14:50:11Z,42.805,6.029,13.3010,4.60062,2470.693,2023-1-13T16:56:27Z
2023-01-13T14:53:14Z,42.805,6.029,13.3010,4.60062,2470.717,2023-1-13T16:59:30Z
2023-01-13T14:56:17Z,42.805,6.029,13.3015,4.60062,2470.67,2023-1-13T17:02:33Z
2023-01-13T14:59:20Z,42.805,6.029,13.3013,4.60062,2470.67,2023-1-13T17:05:36Z
2023-01-13T15:02:23Z,42.805,6.029,13.3011,4.60062,2470.67,2023-1-13T17:08:39Z
2023-01-13T15:05:26Z,42.805,6.029,13.3010,4.60062,2470.624,2023-1-13T17:11:42Z
2023-01-13T15:08:30Z,42.805,6.029,13.3014,4.60062,2470.67,2023-1-13T17:14:45Z
2023-01-13T15:11:33Z,42.805,6.029,13.3009,4.60062,2470.67,2023-1-13T17:17:48Z
2023-01-13T15:14:36Z,42.805,6.029,13.3009,4.60062,2470.67,2023-1-13T17:20:52Z